"read_dt","SO2 (ppb)","flags","PMT voltage (V)","lamp voltage (V)","lamp intensity (Hz)","internal temp (C)","react chamber temp (C)","sample flow (l/min)","pres (mmHg)","SO2 bkg (ppb)","SO2 coefficient"
2015-04-16 00:00:00,2168E-3,5C000000,-0724,0836,12235,031.4,045.5,0.472,744.0,01.18,0.508
2015-04-16 00:01:00,2185E-3,5C000000,-0724,0836,12158,031.4,045.5,0.472,744.0,01.18,0.508
2015-04-16 00:02:00,2279E-3,5C000000,-0724,0836,12145,031.3,045.5,0.472,744.0,01.18,0.508
2015-04-16 00:03:00,2146E-3,5C000000,-0724,0835,12041,031.2,045.5,0.473,744.0,01.18,0.508
2015-04-16 00:04:00,2239E-3,5C000000,-0724,0836,12073,031.1,045.6,0.473,744.0,01.18,0.508
2015-04-16 00:05:00,2325E-3,5C000000,-0724,0836,12010,030.9,045.5,0.472,744.0,01.18,0.508
2015-04-16 00:06:00,2170E-3,5C000000,-0724,0836,12093,030.7,045.5,0.472,744.0,01.18,0.508
2015-04-16 00:07:00,2320E-3,5C000000,-0724,0835,12128,030.6,045.5,0.473,744.0,01.18,0.508
2015-04-16 00:08:00,2170E-3,5C000000,-0724,0835,12180,030.4,045.5,0.473,744.1,01.18,0.508
2015-04-16 00:09:00,2311E-3,5C000000,-0724,0836,12214,030.3,045.5,0.473,744.1,01.18,0.508
2015-04-16 00:10:00,2307E-3,5C000000,-0724,0836,12159,030.0,045.5,0.473,744.1,01.18,0.508
2015-04-16 00:11:00,2381E-3,5C000000,-0724,0834,12134,029.7,045.5,0.474,744.1,01.18,0.508
2015-04-16 00:12:00,2331E-3,5C000000,-0724,0835,12258,029.4,045.5,0.474,744.2,01.18,0.508
2015-04-16 00:13:00,2341E-3,5C000000,-0724,0835,12048,029.1,045.5,0.475,744.2,01.18,0.508
2015-04-16 00:14:00,2194E-3,5C000000,-0724,0834,12162,028.9,045.5,0.475,744.2,01.18,0.508
2015-04-16 00:15:00,2236E-3,5C000000,-0724,0835,12212,028.7,045.5,0.475,744.2,01.18,0.508
2015-04-16 00:16:00,2134E-3,5C000000,-0724,0835,12300,028.5,045.5,0.476,744.2,01.18,0.508
2015-04-16 00:17:00,2239E-3,5C000000,-0724,0833,12243,028.4,045.5,0.476,744.2,01.18,0.508
2015-04-16 00:18:00,2249E-3,5C000000,-0724,0834,12319,028.2,045.5,0.477,744.2,01.18,0.508
2015-04-16 00:19:00,2237E-3,5C000000,-0724,0834,12157,028.1,045.5,0.477,744.2,01.18,0.508
2015-04-16 00:20:00,2300E-3,5C000000,-0724,0833,11968,028.1,045.5,0.476,744.2,01.18,0.508
2015-04-16 00:21:00,2192E-3,5C000000,-0724,0834,12211,028.1,045.5,0.476,744.2,01.18,0.508
2015-04-16 00:22:00,2216E-3,5C000000,-0724,0834,11826,028.2,045.5,0.477,744.1,01.18,0.508
2015-04-16 00:23:00,2325E-3,5C000000,-0724,0834,12142,028.3,045.5,0.477,744.1,01.18,0.508
2015-04-16 00:24:00,2123E-3,5C000000,-0724,0835,12116,028.4,045.5,0.477,744.1,01.18,0.508
2015-04-16 00:25:00,2283E-3,5C000000,-0724,0835,12114,028.5,045.5,0.476,744.1,01.18,0.508
2015-04-16 00:26:00,2222E-3,5C000000,-0724,0834,12156,028.6,045.5,0.476,744.1,01.18,0.508
2015-04-16 00:27:00,2221E-3,5C000000,-0724,0834,12341,028.8,045.5,0.477,744.1,01.18,0.508
2015-04-16 00:28:00,2289E-3,5C000000,-0724,0835,12173,028.9,045.5,0.477,744.1,01.18,0.508
2015-04-16 00:29:00,2200E-3,5C000000,-0724,0835,12128,029.0,045.5,0.476,744.1,01.18,0.508
2015-04-16 00:30:00,2371E-3,5C000000,-0724,0835,12129,029.1,045.5,0.476,744.1,01.18,0.508
2015-04-16 00:31:00,2167E-3,5C000000,-0724,0834,12285,029.3,045.5,0.475,744.1,01.18,0.508
2015-04-16 00:32:00,2206E-3,5C000000,-0724,0836,12105,029.4,045.5,0.476,744.1,01.18,0.508
2015-04-16 00:33:00,2142E-3,5C000000,-0724,0834,12095,029.5,045.5,0.475,744.2,01.18,0.508
2015-04-16 00:34:00,2086E-3,5C000000,-0724,0835,12103,029.6,045.5,0.476,744.1,01.18,0.508
2015-04-16 00:35:00,2147E-3,5C000000,-0724,0836,12159,029.7,045.5,0.475,744.1,01.18,0.508
2015-04-16 00:36:00,2120E-3,5C000000,-0724,0836,12107,029.8,045.5,0.475,744.1,01.18,0.508
2015-04-16 00:37:00,2254E-3,5C000000,-0724,0835,12062,029.9,045.5,0.474,744.1,01.18,0.508
2015-04-16 00:38:00,2349E-3,5C000000,-0724,0836,12035,030.0,045.5,0.475,744.1,01.18,0.508
2015-04-16 00:39:00,2371E-3,5C000000,-0724,0835,11912,030.1,045.5,0.474,744.1,01.18,0.508
2015-04-16 00:40:00,2193E-3,5C000000,-0724,0836,12169,030.2,045.5,0.475,744.1,01.18,0.508
2015-04-16 00:41:00,2406E-3,5C000000,-0724,0835,12081,030.3,045.5,0.474,744.1,01.18,0.508
2015-04-16 00:42:00,2110E-3,5C000000,-0724,0836,12154,030.4,045.5,0.474,744.1,01.18,0.508
2015-04-16 00:43:00,2150E-3,5C000000,-0724,0837,12145,030.5,045.5,0.474,744.1,01.18,0.508
2015-04-16 00:44:00,2266E-3,5C000000,-0724,0835,12108,030.5,045.5,0.474,744.1,01.18,0.508
2015-04-16 00:45:00,2202E-3,5C000000,-0724,0835,12193,030.6,045.5,0.473,744.0,01.18,0.508
2015-04-16 00:46:00,2116E-3,5C000000,-0724,0835,12031,030.7,045.5,0.474,744.0,01.18,0.508
2015-04-16 00:47:00,2175E-3,5C000000,-0724,0835,12134,030.8,045.5,0.473,744.0,01.18,0.508
2015-04-16 00:48:00,2086E-3,5C000000,-0724,0836,12120,030.8,045.5,0.473,744.0,01.18,0.508
2015-04-16 00:49:00,2180E-3,5C000000,-0724,0836,12089,030.9,045.5,0.473,744.0,01.18,0.508
2015-04-16 00:50:00,2220E-3,5C000000,-0724,0836,12191,031.0,045.5,0.473,744.0,01.18,0.508
2015-04-16 00:51:00,2058E-3,5C000000,-0724,0835,12208,031.0,045.5,0.473,744.1,01.18,0.508
2015-04-16 00:52:00,2008E-3,5C000000,-0724,0835,12135,031.1,045.5,0.472,744.1,01.18,0.508
2015-04-16 00:53:00,2082E-3,5C000000,-0724,0836,12110,031.1,045.5,0.473,744.0,01.18,0.508
2015-04-16 00:54:00,2112E-3,5C000000,-0724,0834,12223,031.1,045.5,0.473,744.1,01.18,0.508
2015-04-16 00:55:00,2106E-3,5C000000,-0724,0835,12082,031.0,045.5,0.473,744.1,01.18,0.508
2015-04-16 00:56:00,2113E-3,5C000000,-0724,0835,12125,031.0,045.5,0.472,744.1,01.18,0.508
2015-04-16 00:57:00,2161E-3,5C000000,-0724,0834,12174,030.9,045.5,0.472,744.1,01.18,0.508
2015-04-16 00:58:00,2216E-3,5C000000,-0724,0835,12073,030.8,045.5,0.473,744.1,01.18,0.508
2015-04-16 00:59:00,2101E-3,5C000000,-0724,0835,12234,030.6,045.5,0.473,744.1,01.18,0.508
2015-04-16 01:00:00,2134E-3,5C000000,-0724,0835,12178,030.5,045.5,0.473,744.1,01.18,0.508
2015-04-16 01:01:00,2135E-3,5C000000,-0724,0834,12130,030.3,045.5,0.474,744.1,01.18,0.508
2015-04-16 01:02:00,2052E-3,5C000000,-0724,0835,12144,030.2,045.5,0.473,744.1,01.18,0.508
2015-04-16 01:03:00,2123E-3,5C000000,-0724,0835,12143,030.0,045.5,0.473,744.1,01.18,0.508
2015-04-16 01:04:00,2221E-3,5C000000,-0724,0835,12177,029.8,045.5,0.474,744.1,01.18,0.508
2015-04-16 01:05:00,2318E-3,5C000000,-0724,0835,12013,029.5,045.5,0.474,744.1,01.18,0.508
2015-04-16 01:06:00,2123E-3,5C000000,-0724,0834,12023,029.3,045.5,0.474,744.2,01.18,0.508
2015-04-16 01:07:00,2052E-3,5C000000,-0724,0834,12167,029.0,045.5,0.475,744.2,01.18,0.508
2015-04-16 01:08:00,2056E-3,5C000000,-0724,0834,12259,028.8,045.5,0.476,744.2,01.18,0.508
2015-04-16 01:09:00,2141E-3,5C000000,-0724,0834,12212,028.6,045.5,0.475,744.2,01.18,0.508
2015-04-16 01:10:00,2009E-3,5C000000,-0724,0834,12022,028.4,045.5,0.476,744.2,01.18,0.508
2015-04-16 01:11:00,1929E-3,5C000000,-0724,0834,12293,028.3,045.5,0.476,744.1,01.18,0.508
2015-04-16 01:12:00,2131E-3,5C000000,-0724,0834,12162,028.1,045.5,0.476,744.1,01.18,0.508
2015-04-16 01:13:00,2172E-3,5C000000,-0724,0834,12106,028.0,045.4,0.477,744.2,01.18,0.508
2015-04-16 01:14:00,2165E-3,5C000000,-0724,0834,12071,027.9,045.5,0.477,744.1,01.18,0.508
2015-04-16 01:15:00,2030E-3,5C000000,-0724,0834,12132,027.8,045.4,0.477,744.1,01.18,0.508
2015-04-16 01:16:00,2165E-3,5C000000,-0724,0834,12185,027.7,045.5,0.477,744.1,01.18,0.508
2015-04-16 01:17:00,2038E-3,5C000000,-0724,0835,12054,027.9,045.4,0.477,744.1,01.18,0.508
2015-04-16 01:18:00,2132E-3,5C000000,-0724,0834,12061,027.9,045.5,0.477,744.0,01.18,0.508
2015-04-16 01:19:00,2073E-3,5C000000,-0724,0835,12084,028.0,045.5,0.477,744.0,01.18,0.508
2015-04-16 01:20:00,2151E-3,5C000000,-0724,0833,12111,028.2,045.5,0.477,744.0,01.18,0.508
2015-04-16 01:21:00,2094E-3,5C000000,-0724,0835,12010,028.3,045.5,0.477,744.0,01.18,0.508
2015-04-16 01:22:00,2163E-3,5C000000,-0724,0834,12157,028.4,045.5,0.477,744.0,01.18,0.508
2015-04-16 01:23:00,2019E-3,5C000000,-0724,0834,12181,028.6,045.5,0.477,744.0,01.18,0.508
2015-04-16 01:24:00,2070E-3,5C000000,-0724,0835,12046,028.7,045.5,0.476,744.0,01.18,0.508
2015-04-16 01:25:00,1935E-3,5C000000,-0724,0834,12161,028.9,045.5,0.476,744.0,01.18,0.508
2015-04-16 01:26:00,2162E-3,5C000000,-0724,0835,12071,029.0,045.5,0.476,744.0,01.18,0.508
2015-04-16 01:27:00,2275E-3,5C000000,-0724,0836,12113,029.1,045.5,0.476,744.0,01.18,0.508
2015-04-16 01:28:00,2116E-3,5C000000,-0724,0835,12123,029.3,045.5,0.475,744.0,01.18,0.508
2015-04-16 01:29:00,2220E-3,5C000000,-0724,0835,12144,029.4,045.5,0.476,744.0,01.18,0.508
2015-04-16 01:30:00,2234E-3,5C000000,-0724,0835,12157,029.5,045.5,0.475,744.0,01.18,0.508
2015-04-16 01:31:00,2318E-3,5C000000,-0724,0835,12233,029.6,045.5,0.475,744.0,01.18,0.508
2015-04-16 01:32:00,2119E-3,5C000000,-0724,0835,12233,029.7,045.5,0.475,744.0,01.18,0.508
2015-04-16 01:33:00,2289E-3,5C000000,-0724,0835,12327,029.9,045.5,0.475,744.0,01.18,0.508
2015-04-16 01:34:00,2107E-3,5C000000,-0724,0835,11998,029.9,045.5,0.475,744.0,01.18,0.508
2015-04-16 01:35:00,2421E-3,5C000000,-0724,0836,12128,030.1,045.5,0.474,744.0,01.18,0.508
2015-04-16 01:36:00,2161E-3,5C000000,-0724,0836,12092,030.2,045.5,0.475,744.0,01.18,0.508
2015-04-16 01:37:00,2308E-3,5C000000,-0724,0835,12172,030.3,045.5,0.474,744.0,01.18,0.508
2015-04-16 01:38:00,2299E-3,5C000000,-0724,0836,12105,030.4,045.5,0.474,744.0,01.18,0.508
2015-04-16 01:39:00,2394E-3,5C000000,-0724,0836,12177,030.5,045.5,0.473,744.0,01.18,0.508
2015-04-16 01:40:00,2337E-3,5C000000,-0724,0835,12065,030.6,045.5,0.474,744.0,01.18,0.508
2015-04-16 01:41:00,2183E-3,5C000000,-0724,0836,12195,030.6,045.5,0.473,744.0,01.18,0.508
2015-04-16 01:42:00,2447E-3,5C000000,-0724,0836,12116,030.7,045.5,0.474,744.0,01.18,0.508
2015-04-16 01:43:00,2264E-3,5C000000,-0724,0835,12234,030.8,045.5,0.473,744.0,01.18,0.508
2015-04-16 01:44:00,2334E-3,5C000000,-0724,0836,12133,030.9,045.5,0.473,744.0,01.18,0.508
2015-04-16 01:45:00,2310E-3,5C000000,-0724,0836,12081,030.9,045.5,0.473,744.0,01.18,0.508
2015-04-16 01:46:00,2300E-3,5C000000,-0724,0836,12086,030.9,045.5,0.472,744.0,01.18,0.508
2015-04-16 01:47:00,2401E-3,5C000000,-0724,0836,12201,030.9,045.5,0.473,744.0,01.18,0.508
2015-04-16 01:48:00,2311E-3,5C000000,-0724,0835,12095,030.9,045.5,0.473,744.0,01.18,0.508
2015-04-16 01:49:00,2246E-3,5C000000,-0724,0835,12085,030.8,045.5,0.473,744.0,01.18,0.508
2015-04-16 01:50:00,2282E-3,5C000000,-0724,0835,12095,030.7,045.5,0.473,744.0,01.18,0.508
2015-04-16 01:51:00,2325E-3,5C000000,-0724,0835,12186,030.6,045.5,0.473,744.0,01.18,0.508
2015-04-16 01:52:00,2322E-3,5C000000,-0724,0835,12139,030.5,045.5,0.473,744.0,01.18,0.508
2015-04-16 01:53:00,2295E-3,5C000000,-0724,0835,12079,030.4,045.5,0.473,744.0,01.18,0.508
2015-04-16 01:54:00,2222E-3,5C000000,-0724,0835,12186,030.3,045.5,0.473,744.0,01.18,0.508
2015-04-16 01:55:00,2234E-3,5C000000,-0724,0835,12157,030.1,045.5,0.473,744.0,01.18,0.508
2015-04-16 01:56:00,2244E-3,5C000000,-0724,0835,12063,029.9,045.5,0.474,744.0,01.18,0.508
2015-04-16 01:57:00,2229E-3,5C000000,-0724,0834,12198,029.7,045.5,0.474,744.1,01.18,0.508
2015-04-16 01:58:00,2244E-3,5C000000,-0724,0834,12035,029.4,045.5,0.474,744.1,01.18,0.508
2015-04-16 01:59:00,2119E-3,5C000000,-0724,0835,12189,029.2,045.5,0.475,744.1,01.18,0.508
2015-04-16 02:00:00,2241E-3,5C000000,-0724,0834,12103,028.9,045.5,0.475,744.1,01.18,0.508
2015-04-16 02:01:00,2137E-3,5C000000,-0724,0835,12114,028.7,045.5,0.475,744.2,01.18,0.508
2015-04-16 02:02:00,2252E-3,5C000000,-0724,0834,12096,028.5,045.5,0.476,744.2,01.18,0.508
2015-04-16 02:03:00,2094E-3,5C000000,-0724,0835,12144,028.4,045.4,0.476,744.2,01.18,0.508
2015-04-16 02:04:00,2124E-3,5C000000,-0724,0834,12141,028.2,045.5,0.476,744.1,01.18,0.508
2015-04-16 02:05:00,2189E-3,5C000000,-0724,0833,12117,028.0,045.5,0.476,744.2,01.18,0.508
2015-04-16 02:06:00,2125E-3,5C000000,-0724,0834,12149,027.9,045.5,0.477,744.2,01.18,0.508
2015-04-16 02:07:00,2092E-3,5C000000,-0724,0834,12165,027.8,045.5,0.477,744.2,01.18,0.508
2015-04-16 02:08:00,2135E-3,5C000000,-0724,0834,12202,027.7,045.4,0.477,744.2,01.18,0.508
2015-04-16 02:09:00,2110E-3,5C000000,-0724,0835,12045,027.6,045.5,0.477,744.2,01.18,0.508
2015-04-16 02:10:00,2243E-3,5C000000,-0724,0834,12229,027.5,045.5,0.477,744.2,01.18,0.508
2015-04-16 02:11:00,2065E-3,5C000000,-0724,0835,12266,027.5,045.5,0.477,744.2,01.18,0.508
2015-04-16 02:12:00,2125E-3,5C000000,-0724,0834,12159,027.6,045.4,0.477,744.2,01.18,0.508
2015-04-16 02:13:00,2279E-3,5C000000,-0724,0834,12101,027.7,045.5,0.477,744.2,01.18,0.508
2015-04-16 02:14:00,2188E-3,5C000000,-0724,0835,12189,027.8,045.4,0.478,744.2,01.18,0.508
2015-04-16 02:15:00,2140E-3,5C000000,-0724,0835,12182,027.9,045.5,0.477,744.1,01.18,0.508
2015-04-16 02:16:00,2123E-3,5C000000,-0724,0835,12063,028.0,045.5,0.477,744.1,01.18,0.508
2015-04-16 02:17:00,2038E-3,5C000000,-0724,0835,12111,028.2,045.5,0.477,744.1,01.18,0.508
2015-04-16 02:18:00,1989E-3,5C000000,-0724,0835,12294,028.4,045.5,0.477,744.1,01.18,0.508
2015-04-16 02:19:00,2009E-3,5C000000,-0724,0835,12097,028.5,045.5,0.476,744.1,01.18,0.508
2015-04-16 02:20:00,2044E-3,5C000000,-0724,0835,12208,028.7,045.5,0.477,744.1,01.18,0.508
2015-04-16 02:21:00,2024E-3,5C000000,-0724,0835,12213,028.8,045.5,0.476,744.1,01.18,0.508
2015-04-16 02:22:00,1982E-3,5C000000,-0724,0835,12291,029.0,045.5,0.476,744.1,01.18,0.508
2015-04-16 02:23:00,1996E-3,5C000000,-0724,0835,12199,029.1,045.5,0.476,744.1,01.18,0.508
2015-04-16 02:24:00,1976E-3,5C000000,-0724,0835,11988,029.3,045.5,0.475,744.1,01.18,0.508
2015-04-16 02:25:00,2003E-3,5C000000,-0724,0836,12129,029.4,045.5,0.476,744.1,01.18,0.508
2015-04-16 02:26:00,1973E-3,5C000000,-0724,0835,12037,029.5,045.5,0.475,744.1,01.18,0.508
2015-04-16 02:27:00,1933E-3,5C000000,-0724,0835,12290,029.6,045.5,0.475,744.1,01.18,0.508
2015-04-16 02:28:00,2011E-3,5C000000,-0724,0835,12172,029.8,045.5,0.475,744.1,01.18,0.508
2015-04-16 02:29:00,1841E-3,5C000000,-0724,0835,12265,029.9,045.5,0.474,744.1,01.18,0.508
2015-04-16 02:30:00,1911E-3,5C000000,-0724,0835,12201,030.0,045.5,0.475,744.0,01.18,0.508
2015-04-16 02:31:00,2037E-3,5C000000,-0724,0835,12050,030.1,045.5,0.474,744.0,01.18,0.508
2015-04-16 02:32:00,2034E-3,5C000000,-0724,0835,12200,030.2,045.5,0.474,744.0,01.18,0.508
2015-04-16 02:33:00,1967E-3,5C000000,-0724,0836,12332,030.3,045.5,0.474,744.0,01.18,0.508
2015-04-16 02:34:00,1919E-3,5C000000,-0724,0836,12162,030.4,045.5,0.474,744.0,01.18,0.508
2015-04-16 02:35:00,1972E-3,5C000000,-0724,0835,12096,030.5,045.5,0.473,744.0,01.18,0.508
2015-04-16 02:36:00,1905E-3,5C000000,-0724,0835,12135,030.5,045.5,0.474,744.0,01.18,0.508
2015-04-16 02:37:00,1932E-3,5C000000,-0724,0835,12295,030.5,045.5,0.474,744.0,01.18,0.508
2015-04-16 02:38:00,1965E-3,5C000000,-0724,0835,11934,030.5,045.5,0.473,744.0,01.18,0.508
2015-04-16 02:39:00,1944E-3,5C000000,-0724,0836,12112,030.4,045.5,0.473,744.0,01.18,0.508
2015-04-16 02:40:00,1865E-3,5C000000,-0724,0835,11985,030.4,045.5,0.473,744.0,01.18,0.508
2015-04-16 02:41:00,2038E-3,5C000000,-0724,0835,12028,030.3,045.5,0.474,744.0,01.18,0.508
2015-04-16 02:42:00,1995E-3,5C000000,-0724,0836,12243,030.2,045.5,0.474,744.0,01.18,0.508
2015-04-16 02:43:00,1969E-3,5C000000,-0724,0835,12097,030.1,045.5,0.474,744.0,01.18,0.508
2015-04-16 02:44:00,1865E-3,5C000000,-0724,0836,12044,030.0,045.5,0.474,744.0,01.18,0.508
2015-04-16 02:45:00,1994E-3,5C000000,-0724,0835,12155,029.9,045.5,0.474,744.0,01.18,0.508
2015-04-16 02:46:00,2016E-3,5C000000,-0724,0835,12106,029.7,045.5,0.474,744.0,01.18,0.508
2015-04-16 02:47:00,1872E-3,5C000000,-0724,0835,12181,029.5,045.5,0.474,744.1,01.18,0.508
2015-04-16 02:48:00,2145E-3,5C000000,-0724,0835,12102,029.3,045.5,0.475,744.1,01.18,0.508
2015-04-16 02:49:00,2047E-3,5C000000,-0724,0834,11970,029.0,045.5,0.475,744.1,01.18,0.508
2015-04-16 02:50:00,1939E-3,5C000000,-0724,0834,12307,028.8,045.5,0.475,744.1,01.18,0.508
2015-04-16 02:51:00,1946E-3,5C000000,-0724,0834,12072,028.6,045.5,0.475,744.1,01.18,0.508
2015-04-16 02:52:00,2025E-3,5C000000,-0724,0833,12107,028.4,045.5,0.476,744.1,01.18,0.508
2015-04-16 02:53:00,2143E-3,5C000000,-0724,0834,12108,028.2,045.4,0.476,744.1,01.18,0.508
2015-04-16 02:54:00,1940E-3,5C000000,-0724,0835,12147,028.1,045.4,0.476,744.1,01.18,0.508
2015-04-16 02:55:00,2023E-3,5C000000,-0724,0835,12154,028.0,045.4,0.476,744.1,01.18,0.508
2015-04-16 02:56:00,1906E-3,5C000000,-0724,0835,12154,027.8,045.5,0.477,744.1,01.18,0.508
2015-04-16 02:57:00,1843E-3,5C000000,-0724,0834,12271,027.7,045.5,0.477,744.1,01.18,0.508
2015-04-16 02:58:00,1883E-3,5C000000,-0724,0834,12227,027.6,045.4,0.477,744.1,01.18,0.508
2015-04-16 02:59:00,1881E-3,5C000000,-0724,0833,12190,027.5,045.5,0.477,744.1,01.18,0.508
2015-04-16 03:00:00,1905E-3,5C000000,-0724,0834,12066,027.4,045.5,0.478,744.1,01.18,0.508
2015-04-16 03:01:00,1808E-3,5C000000,-0724,0834,12183,027.4,045.4,0.478,744.1,01.18,0.508
2015-04-16 03:02:00,2027E-3,5C000000,-0724,0834,12130,027.3,045.4,0.478,744.1,01.18,0.508
2015-04-16 03:03:00,1919E-3,5C000000,-0724,0834,12173,027.2,045.4,0.478,744.1,01.18,0.508
2015-04-16 03:04:00,1843E-3,5C000000,-0724,0834,12004,027.1,045.4,0.478,744.1,01.18,0.508
2015-04-16 03:05:00,1887E-3,5C000000,-0724,0833,12147,027.2,045.4,0.478,744.1,01.18,0.508
2015-04-16 03:06:00,1894E-3,5C000000,-0724,0834,12216,027.3,045.5,0.478,744.1,01.18,0.508
2015-04-16 03:07:00,1874E-3,5C000000,-0724,0835,12281,027.4,045.5,0.478,744.1,01.18,0.508
2015-04-16 03:08:00,1872E-3,5C000000,-0724,0835,12129,027.6,045.5,0.478,744.1,01.18,0.508
2015-04-16 03:09:00,1853E-3,5C000000,-0724,0834,12175,027.7,045.4,0.477,744.0,01.18,0.508
2015-04-16 03:10:00,1972E-3,5C000000,-0724,0834,12194,027.9,045.4,0.478,744.0,01.18,0.508
2015-04-16 03:11:00,1811E-3,5C000000,-0724,0834,12072,028.0,045.5,0.477,744.0,01.18,0.508
2015-04-16 03:12:00,1823E-3,5C000000,-0724,0835,12120,028.2,045.5,0.477,744.0,01.18,0.508
2015-04-16 03:13:00,1788E-3,5C000000,-0724,0834,12174,028.3,045.5,0.477,744.1,01.18,0.508
2015-04-16 03:14:00,1823E-3,5C000000,-0724,0836,12104,028.5,045.5,0.477,744.0,01.18,0.508
2015-04-16 03:15:00,1795E-3,5C000000,-0724,0836,12106,028.6,045.5,0.476,744.1,01.18,0.508
2015-04-16 03:16:00,1949E-3,5C000000,-0724,0835,12234,028.8,045.5,0.477,744.0,01.18,0.508
2015-04-16 03:17:00,1958E-3,5C000000,-0724,0835,12245,028.9,045.5,0.476,744.1,01.18,0.508
2015-04-16 03:18:00,1968E-3,5C000000,-0724,0835,12259,029.0,045.5,0.476,744.0,01.18,0.508
2015-04-16 03:19:00,1919E-3,5C000000,-0724,0835,12197,029.2,045.5,0.476,744.0,01.18,0.508
2015-04-16 03:20:00,1888E-3,5C000000,-0724,0836,12151,029.3,045.5,0.475,744.0,01.18,0.508
2015-04-16 03:21:00,1889E-3,5C000000,-0724,0835,12124,029.4,045.5,0.476,744.0,01.18,0.508
2015-04-16 03:22:00,1778E-3,5C000000,-0724,0835,12153,029.5,045.5,0.475,744.0,01.18,0.508
2015-04-16 03:23:00,1755E-3,5C000000,-0724,0835,12159,029.6,045.5,0.475,744.0,01.18,0.508
2015-04-16 03:24:00,1838E-3,5C000000,-0724,0836,12294,029.7,045.5,0.475,744.0,01.18,0.508
2015-04-16 03:25:00,1756E-3,5C000000,-0724,0835,12024,029.8,045.5,0.474,744.0,01.18,0.508
2015-04-16 03:26:00,1789E-3,5C000000,-0724,0835,12141,029.9,045.5,0.475,744.0,01.18,0.508
2015-04-16 03:27:00,1894E-3,5C000000,-0724,0836,12280,030.0,045.5,0.474,744.0,01.18,0.508
"read_dt","SO2 (ppb)","flags","PMT voltage (V)","lamp voltage (V)","lamp intensity (Hz)","internal temp (C)","react chamber temp (C)","sample flow (l/min)","pres (mmHg)","SO2 bkg (ppb)","SO2 coefficient"
2015-04-16 05:48:00,1496E-3,5C000004,-0724,0814,11699,022.2,027.0,0.492,743.4,01.18,0.508
2015-04-16 05:49:00,2508E-3,5C000004,-0724,0830,12330,022.1,027.6,0.491,743.3,01.18,0.508
2015-04-16 05:50:00,2420E-3,5C000004,-0724,0829,12279,022.1,028.5,0.491,743.4,01.18,0.508
2015-04-16 05:51:00,2216E-3,5C000004,-0724,0829,12038,022.1,029.4,0.490,743.4,01.18,0.508
2015-04-16 05:52:00,2358E-3,5C000004,-0724,0830,12193,022.1,030.4,0.490,743.4,01.18,0.508
2015-04-16 05:53:00,2356E-3,5C000004,-0724,0831,12287,022.2,031.4,0.490,743.5,01.18,0.508
2015-04-16 05:54:00,2277E-3,5C000004,-0724,0831,12134,022.2,032.4,0.489,743.5,01.18,0.508
2015-04-16 05:55:00,2188E-3,5C000004,-0724,0831,12270,022.3,033.3,0.489,743.5,01.18,0.508
2015-04-16 05:56:00,2203E-3,5C000004,-0724,0831,12244,022.4,034.2,0.488,743.5,01.18,0.508
2015-04-16 05:57:00,2172E-3,5C000004,-0724,0832,12270,022.5,035.0,0.487,743.5,01.18,0.508
2015-04-16 05:58:00,2191E-3,5C000004,-0724,0832,12347,022.6,035.8,0.487,743.5,01.18,0.508
2015-04-16 05:59:00,2292E-3,5C000004,-0724,0833,12109,022.7,036.6,0.487,743.5,01.18,0.508
2015-04-16 06:00:00,2241E-3,5C000004,-0724,0833,12234,022.8,037.4,0.487,743.5,01.18,0.508
2015-04-16 06:01:00,2196E-3,5C000004,-0724,0833,12251,022.9,038.1,0.486,743.5,01.18,0.508
2015-04-16 06:02:00,2280E-3,5C000004,-0724,0833,12185,023.1,038.8,0.486,743.5,01.18,0.508
2015-04-16 06:03:00,2288E-3,5C000004,-0724,0834,12151,023.2,039.4,0.485,743.5,01.18,0.508
2015-04-16 06:04:00,1974E-3,5C000004,-0724,0835,12068,023.3,040.1,0.485,743.6,01.18,0.508
2015-04-16 06:05:00,2027E-3,5C000004,-0724,0834,12143,023.4,040.7,0.485,743.5,01.18,0.508
2015-04-16 06:06:00,2154E-3,5C000004,-0724,0835,12111,023.5,041.3,0.484,743.5,01.18,0.508
2015-04-16 06:07:00,2003E-3,5C000004,-0724,0835,12139,023.7,041.9,0.484,743.5,01.18,0.508
2015-04-16 06:08:00,2186E-3,5C000004,-0724,0835,12113,023.8,042.4,0.484,743.5,01.18,0.508
2015-04-16 06:09:00,1911E-3,5C000000,-0724,0836,12078,023.9,043.0,0.483,743.6,01.18,0.508
2015-04-16 06:10:00,1837E-3,5C000000,-0724,0835,12168,024.1,043.5,0.484,743.6,01.18,0.508
2015-04-16 06:11:00,2099E-3,5C000000,-0724,0835,12175,024.1,044.0,0.483,743.6,01.18,0.508
2015-04-16 06:12:00,1989E-3,5C000000,-0724,0835,12065,024.3,044.5,0.483,743.6,01.18,0.508
2015-04-16 06:13:00,1908E-3,5C000000,-0724,0836,12054,024.4,045.0,0.483,743.5,01.18,0.508
2015-04-16 06:14:00,1791E-3,5C000000,-0724,0836,12256,024.5,045.4,0.482,743.6,01.18,0.508
2015-04-16 06:15:00,1977E-3,5C000000,-0724,0836,12021,024.6,045.6,0.482,743.6,01.18,0.508
2015-04-16 06:16:00,1887E-3,5C000000,-0724,0837,12262,024.7,045.5,0.482,743.6,01.18,0.508
2015-04-16 06:17:00,2166E-3,5C000000,-0724,0836,12225,024.9,045.4,0.482,743.6,01.18,0.508
2015-04-16 06:18:00,1824E-3,5C000000,-0724,0836,12091,025.0,045.5,0.481,743.5,01.18,0.508
2015-04-16 06:19:00,2000E-3,5C000000,-0724,0836,12114,025.1,045.5,0.481,743.4,01.18,0.508
2015-04-16 06:20:00,1908E-3,5C000000,-0724,0836,12114,025.3,045.5,0.481,743.4,01.18,0.508
2015-04-16 06:21:00,1870E-3,5C000000,-0724,0836,12121,025.4,045.5,0.480,743.5,01.18,0.508
2015-04-16 06:22:00,1703E-3,5C000000,-0724,0836,12153,025.5,045.5,0.480,743.4,01.18,0.508
2015-04-16 06:23:00,1745E-3,5C000000,-0724,0836,12215,025.6,045.5,0.480,743.4,01.18,0.508
2015-04-16 06:24:00,1805E-3,5C000000,-0724,0836,12231,025.7,045.5,0.480,743.4,01.18,0.508
2015-04-16 06:25:00,1745E-3,5C000000,-0724,0835,12050,025.8,045.5,0.480,743.4,01.18,0.508
2015-04-16 06:26:00,1802E-3,5C000000,-0724,0835,12200,026.0,045.5,0.480,743.4,01.18,0.508
2015-04-16 06:27:00,1762E-3,5C000000,-0724,0836,12129,026.1,045.5,0.480,743.5,01.18,0.508
2015-04-16 06:28:00,1864E-3,5C000000,-0724,0836,12157,026.2,045.5,0.479,743.5,01.18,0.508
2015-04-16 06:29:00,1816E-3,5C000000,-0724,0836,12237,026.3,045.5,0.479,743.5,01.18,0.508
2015-04-16 06:30:00,1812E-3,5C000000,-0724,0836,12141,026.4,045.5,0.479,743.5,01.18,0.508
2015-04-16 06:31:00,1670E-3,5C000000,-0724,0835,12080,026.6,045.5,0.479,743.5,01.18,0.508
2015-04-16 06:32:00,1904E-3,5C000000,-0724,0835,12036,026.6,045.5,0.479,743.5,01.18,0.508
2015-04-16 06:33:00,1833E-3,5C000000,-0724,0834,12266,026.8,045.5,0.479,743.5,01.18,0.508
2015-04-16 06:34:00,1992E-3,5C000000,-0724,0835,12261,026.9,045.4,0.478,743.5,01.18,0.508
2015-04-16 06:35:00,1764E-3,5C000000,-0724,0835,12109,027.0,045.4,0.478,743.5,01.18,0.508
2015-04-16 06:36:00,1846E-3,5C000000,-0724,0836,12064,027.1,045.4,0.477,743.5,01.18,0.508
2015-04-16 06:37:00,1826E-3,5C000000,-0724,0835,12169,027.2,045.5,0.478,743.5,01.18,0.508
2015-04-16 06:38:00,1697E-3,5C000000,-0724,0835,12204,027.3,045.5,0.478,743.5,01.18,0.508